Showing default

VSP RF A1, 59135

Orbit data source: Space-Track

VSP RF A1, 59135 is a payload satellite owned by Aerospacelab (BE) in SSO that was launched on Mon, 04 Mar 2024 UTC via an FALCON 9 launch vehicle from the Air Force Western Test Range (AFWTR). Payloads include a variety of satellites, spacecraft, and rockets equipped with specific instruments for various scientific and technological missions. These include communications satellites like Starlink; space stations such as the ISS; scientific satellites like the Hubble; Earth observation satellites from companies like Planet Labs, Umbra, and HawkEye 360; GPS; miniature CubeSats for education and research; and military/defense satellites.

Loading next visibility...
VSP RF A1 details
Identifier
59135, 2024-043AP
Orbit
SSO
Last TLE update8 hours ago
Origin
Flag of BEAerospacelab (BE / BEL)
ManufacturerAerospacelab
MissionOperational Amateur Technology
Bus & MotorAEROSP, Unknown motor
Mass~200 kg wet, ~200 kg dry
Launch date (UTC)
2024-03-04 (9 months ago)
Launch vehicle
FALCON 9
Launch site
Air Force Western Test Range (AFWTR)
Object type
Payload
Rocket body
Debris
Shape & HBRBox, 0.3 m
Radar Cross Section0.800 m², Medium (>0.1 m² and < 1m²)

Expand to show TLE details & history

TLE from 8 hours ago
0 VSP RF A1
1 59135U 24043AP  24326.12081219  .00007485  00000-0  33663-3 0  9995
2 59135  97.4958  88.7059 0013637  94.5502 265.7291 15.21321643 39641
Epoch: 2024-11-21T02:53Z
Definitive object data (Epoch: 2024-11-21T02:53:58.173Z)
Latitude-0.00007°
Longitude-15.39358°
Altitude505.654 km
Speed7.611 km/s
True Right ascension05h 54m 49s
True Declination0° 00' 00"
Sunlit
Object was in full shadow at TLE epoch
Visualization TLE readout
Latitude-78.44826°
Longitude24.72738°
Altitude539.056 km
Speed7.586 km/s
Apparent Right ascension19h 04m 05s
Apparent Declination-71° 39' 45"
Sunlit
Object is in daylight
Visualization observer readout
Local Sidereal Time07:29:20
Azimuth176.248° S
Elevation-58.095°
Doppler factor1
Orbital elements
Apogee altitude508.199 km
Perigee altitude489.443 km
Semi-major axis6,876.958 km
Eccentricity0.0013637
Inclination97.4958°
RAAN88.7059°
Arg. of periapsis94.5502°
True anomaly265.57329°
Mean anomaly265.7291°
Eccentric anomaly265.65119°
Mean motion3.80582 °/min
BSTAR0.00033663
Orbital period94.59 mins
Loading maneuver chart data...
Loading historical data...
Loading historical data...
Loading historical data...
Loading historical data...
Loading historical data...
Loading historical data...
Loading historical data...

VSP RF A1 Visibility forecast

Observer location: undefined°, undefined

Span
Click to sort rows by Start time (UTC) header in descending order
Start Az.
Max El. time (UTC)
Max El. Az.
Max El.
End time (UTC)
End Az.
5 mins2024-11-21 20:50:08.593Z34.087° NE2024-11-21 20:53:08.593Z117.677° SE31.321°2024-11-21 20:55:08.593Z161.814° S
4 mins2024-11-22 09:02:08.593Z219.931° SW2024-11-22 09:04:08.593Z273.905° WNW25.149°2024-11-22 09:06:08.593Z316.237° NNW
|